Weather History for KPYM - October, 2011

Change the Weather History Date:

Sunday, October 9, 2011

  Actual Average Record
Temperature  
Mean Temperature 68 °F -  
Max Temperature 86 °F 64 °F 86 °F (2011)
Min Temperature 51 °F 42 °F 26 °F (2001)
Cooling Degree Days 2    
Growing Degree Days 18 (Base 50)    
Moisture  
Dew Point 53 °F    
Average Humidity 64    
Maximum Humidity 93    
Minimum Humidity 32    
Precipitation  
Precipitation 0.00 in - - ()
Sea Level Pressure  
Sea Level Pressure 30.29 in    
Wind  
Wind Speed 3 mph (WNW)    
Max Wind Speed 12 mph    
Max Gust Speed -    
Visibility 10 miles    
Events      
Averages and records for this station are not official NWS values.
T = Trace of Precipitation, MM = Missing Value Source: NWS Daily Summary

Daily Weather History Graph

Daily Weather History Graph

Search for Another Location

Airport or City:

Trip Planner

Search our weather history database for the weather conditions in past years. The results will help you decide how hot, cold, wet, or windy it might be!

Date:

Astronomy

Oct. 09, 2011 Rise Set
Actual Time 6:48 AM EDT 6:11 PM EDT
Civil Twilight 6:20 AM EDT 6:39 PM EDT
Nautical Twilight 5:48 AM EDT 7:11 PM EDT
Astronomical Twilight 5:15 AM EDT 7:44 PM EDT
Moon 4:48 PM EDT (10/9) 4:28 AM EDT (10/9)
Length of Visible Light 12h 19m
Length of Day
11h 23m
Waxing Gibbous, 95% of the Moon is Illuminated
Oct 9
Waxing Gibbous
Oct 11
Full
Oct 19
Last Quarter
Oct 26
New
Nov 2
First Quarter

Hourly Weather History & Observations

Time (EDT) Temp. Heat Index Dew Point Humidity Pressure Visibility Wind Dir Wind Speed Gust Speed Precip Events Conditions
12:52 AM 54.0 °F - 52.0 °F 93% 30.33 in 10.0 mi Calm Calm - N/A   Clear
2:52 AM 52.0 °F - 48.9 °F 89% 30.32 in 10.0 mi Calm Calm - N/A   Clear
3:52 AM 52.0 °F - 48.9 °F 89% 30.32 in 10.0 mi Calm Calm - N/A   Clear
4:52 AM 51.1 °F - 48.0 °F 89% 30.33 in 8.0 mi Calm Calm - N/A   Clear
5:52 AM 51.1 °F - 48.0 °F 89% 30.33 in 10.0 mi WSW 3.5 mph - N/A   Clear
6:52 AM 57.0 °F - 50.0 °F 77% 30.33 in 10.0 mi West 4.6 mph - N/A   Clear
7:52 AM 62.1 °F - 53.1 °F 72% 30.33 in 10.0 mi West 4.6 mph - N/A   Clear
8:52 AM 66.0 °F - 53.1 °F 63% 30.34 in 10.0 mi WNW 6.9 mph - N/A   Clear
9:52 AM 73.0 °F - 53.1 °F 49% 30.34 in 10.0 mi WNW 8.1 mph - N/A   Clear
10:52 AM 77.0 °F - 54.0 °F 45% 30.32 in 10.0 mi West 8.1 mph - N/A   Clear
11:52 AM 81.0 °F 80.4 °F 53.1 °F 38% 30.31 in 10.0 mi WNW 10.4 mph - N/A   Clear
12:52 PM 82.9 °F 81.8 °F 53.1 °F 36% 30.29 in 10.0 mi NW 6.9 mph - N/A   Clear
1:52 PM 84.9 °F - 52.0 °F 32% 30.27 in 10.0 mi WNW 11.5 mph - N/A   Clear
3:52 PM 84.9 °F 83.2 °F 53.1 °F 33% 30.24 in 10.0 mi WNW 6.9 mph - N/A   Clear
4:52 PM 84.0 °F 82.9 °F 55.0 °F 37% 30.23 in 10.0 mi West 4.6 mph - N/A   Clear
5:52 PM 75.9 °F - 57.9 °F 54% 30.23 in 10.0 mi WSW 3.5 mph - N/A   Clear
6:52 PM 66.9 °F - 59.0 °F 76% 30.24 in 10.0 mi Calm Calm - N/A   Clear
8:52 PM 60.1 °F - 55.9 °F 86% 30.23 in 10.0 mi Calm Calm - N/A   Clear
9:52 PM 69.1 °F - 55.0 °F 61% 30.22 in 10.0 mi WNW 6.9 mph - N/A   Clear
10:52 PM 66.9 °F - 55.0 °F 66% 30.23 in 10.0 mi WNW 8.1 mph - N/A   Clear
11:52 PM 64.9 °F - 54.0 °F 68% 30.21 in 10.0 mi WNW 5.8 mph - N/A   Clear